RADIX (43550 NORAD) Tracking and Keplerian Element Data

This shows tracking and keplerian element data for the satellite.

Feedback or suggestion? Click here.




ElementValue
Catalog43550
NameRADIX
Epoch Orbit5815
Epoch Day201.53204518
Epoch Year2019
RAAN176.1472
Inclination51.6341
Eccentricity0.0003087
Argument of Perigee292.7166
Mean Anonmoly67.3504
Mean Motion15.67168436
Decay Rate0.00013724
L11 43550U 98067NY 19201.53204518 .00013724 00000-0 13053-3 0 9990
L22 43550 51.6341 176.1472 0003087 292.7166 67.3504 15.67168436 58159

Live tracking and technical data element details for RADIX (NORAD 43550). RADIX can be tracked NOW for your location showing map with azimuth and elevation plus other details from your city location.

Track the satellite on the map from your city or location and see movement details for azimuth, elevation, latitude, longitude, range, height, and movement on the map or in text.







IsCatalogInMostPopularTable: catalog: 43550, numindb: 204
Update: records affected: 1



GetName: 43550 RADIX

Hit Count: updated at: Sun, 21 Jul 2019 15:23:08 GMT